FW6802 Weather Reports


Display with metric or nautical units.
time (UTC)temp
F
wind
direction
speed
MPH
gust
MPH
rain 1hr
in
rain 24hr
in
rain mn
in
humidity
%
barometer
mb
20260508041616 52 196 3.0 11.0 0.00 0.00 0.00 64 1011.9
20260508040600 52 210 3.0 11.0 0.00 0.00 0.00 65 1011.7
20260508040059 52 195 3.0 11.0 0.00 0.00 0.00 65 1011.5
20260508035558 52 199 3.0 11.0 0.00 0.00 0.00 65 1011.6
20260508034542 52 191 3.0 11.0 0.00 0.00 0.00 67 1011.6
20260508034042 52 190 2.0 11.0 0.00 0.00 0.00 68 1011.4
20260508033541 51 194 3.0 11.0 0.00 0.00 0.00 69 1011.6
20260508033041 51 202 3.0 11.0 0.00 0.00 0.00 70 1011.4
20260508032541 51 185 3.0 11.0 0.00 0.00 0.00 71 1011.6
20260508032041 51 184 1.0 11.0 0.00 0.00 0.00 72 1011.7
20260508031541 51 184 0.0 11.0 0.00 0.00 0.00 72 1011.7
20260508031040 51 184 2.0 11.0 0.00 0.00 0.00 73 1011.5
20260508030025 51 184 2.0 11.0 0.00 0.00 0.00 73 1011.8
20260508025525 51 176 1.0 11.0 0.00 0.00 0.00 73 1011.8
20260508025025 52 175 1.0 11.0 0.00 0.00 0.00 73 1011.7
20260508024525 52 171 2.0 11.0 0.00 0.00 0.00 72 1011.4
20260508024025 52 170 1.0 11.0 0.00 0.00 0.00 72 1011.4
20260508023524 52 171 2.0 11.0 0.00 0.00 0.00 71 1011.3
20260508023024 52 170 2.0 11.0 0.00 0.00 0.00 71 1011.4
20260508022524 52 170 2.0 11.0 0.00 0.00 0.00 71 1011.2
20260508022024 52 170 2.0 11.0 0.00 0.00 0.00 70 1011.3
20260508021009 52 182 2.0 11.0 0.00 0.00 0.00 70 1011.3
20260508020509 53 213 2.0 11.0 0.00 0.00 0.00 69 1011.2
20260508020009 53 213 1.0 11.0 0.00 0.00 0.00 69 1011.1
20260508015509 53 213 0.0 11.0 0.00 0.00 0.00 68 1011.3
20260508015009 53 245 1.0 11.0 0.00 0.00 0.00 68 1011.1
20260508014509 53 254 0.0 11.0 0.00 0.00 0.00 67 1011.3
20260508014009 53 254 0.0 11.0 0.00 0.00 0.00 66 1011.3
20260508013509 53 254 0.0 11.0 0.00 0.00 0.00 65 1011.3
20260508013009 54 254 0.0 11.0 0.00 0.00 0.00 65 1011.1
20260508012509 54 254 0.0 11.0 0.00 0.00 0.00 64 1011.0
20260508012009 54 254 1.0 11.0 0.00 0.00 0.00 64 1011.1
20260508010953 54 257 1.0 11.0 0.00 0.00 0.00 64 1011.2
20260508005937 55 256 1.0 11.0 0.00 0.00 0.00 63 1011.5
20260508005436 55 273 1.0 11.0 0.00 0.00 0.00 63 1011.5
20260508004936 55 253 1.0 11.0 0.00 0.00 0.00 63 1011.4
20260508004436 55 275 0.0 11.0 0.00 0.00 0.00 63 1011.4
20260508003936 55 274 1.0 11.0 0.00 0.00 0.00 62 1011.1
20260508003435 55 274 1.0 11.0 0.00 0.00 0.00 61 1011.4
20260508002934 55 276 0.0 11.0 0.00 0.00 0.00 61 1011.1
20260508002434 55 276 1.0 11.0 0.00 0.00 0.00 61 1011.2
20260508001933 55 276 0.0 11.0 0.00 0.00 0.00 61 1011.0
20260508001433 55 276 2.0 11.0 0.00 0.00 0.00 61 1011.5
20260508000933 55 268 2.0 11.0 0.00 0.00 0.00 61 1011.5
20260508000434 55 227 1.0 11.0 0.00 0.00 0.00 61 1011.1
20260507235933 56 214 2.0 11.0 0.00 0.00 0.00 61 1011.3
20260507235433 56 279 3.0 11.0 0.00 0.00 0.00 60 1011.3
20260507234418 58 270 4.0 16.0 0.00 0.00 0.00 55 1011.7
20260507233918 59 256 8.0 16.0 0.00 0.00 0.00 49 1011.4
20260507233418 59 256 6.0 15.0 0.00 0.00 0.00 43 1011.4
20260507232918 60 267 5.0 15.0 0.00 0.00 0.00 43 1011.4
20260507232417 60 300 6.0 15.0 0.00 0.00 0.00 42 1011.5
20260507231916 61 231 3.0 12.0 0.00 0.00 0.00 40 1011.2
20260507231415 61 238 4.0 12.0 0.00 0.00 0.00 40 1011.0
20260507230914 61 234 4.0 12.0 0.00 0.00 0.00 40 1011.0
20260507225857 61 241 4.0 12.0 0.00 0.00 0.00 39 1010.8
20260507225357 61 231 3.0 12.0 0.00 0.00 0.00 40 1010.9
20260507224857 61 223 3.0 12.0 0.00 0.00 0.00 39 1010.6
20260507224357 62 222 3.0 12.0 0.00 0.00 0.00 38 1009.7
20260507223857 62 238 5.0 12.0 0.00 0.00 0.00 37 1010.5
20260507223357 62 216 7.0 12.0 0.00 0.00 0.00 36 1008.3
20260507222856 62 207 4.0 11.0 0.00 0.00 0.00 38 1009.9
20260507222356 62 217 5.0 11.0 0.00 0.00 0.00 38 1008.8
20260507221855 62 207 5.0 11.0 0.00 0.00 0.00 39 1011.0
20260507221355 62 223 4.0 11.0 0.00 0.00 0.00 37 1010.8
20260507220855 62 210 5.0 11.0 0.00 0.00 0.00 36 1010.7
20260507215324 63 211 5.0 11.0 0.00 0.00 0.00 36 1012.7
20260507214309 63 226 4.0 11.0 0.00 0.00 0.00 35 1010.2
20260507213808 64 230 4.0 11.0 0.00 0.00 0.00 35 1010.6
20260507213308 64 226 5.0 11.0 0.00 0.00 0.00 35 1007.7
20260507212253 64 227 4.0 11.0 0.00 0.00 0.00 34 1009.4
20260507211753 65 217 5.0 11.0 0.00 0.00 0.00 34 1010.9
20260507211253 65 252 5.0 11.0 0.00 0.00 0.00 34 1010.3
20260507210237 64 220 3.0 11.0 0.00 0.00 0.00 34 1010.7
20260507205737 64 230 7.0 11.0 0.00 0.00 0.00 34 1010.6
20260507204721 63 254 4.0 11.0 0.00 0.00 0.00 34 1011.0
20260507204220 64 280 5.0 11.0 0.00 0.00 0.00 33 1011.1
20260507203720 64 246 3.0 11.0 0.00 0.00 0.00 33 1011.1
20260507203219 64 281 4.0 11.0 0.00 0.00 0.00 33 1011.2
20260507202719 64 259 4.0 11.0 0.00 0.00 0.00 33 1011.3
20260507201147 64 231 4.0 11.0 0.00 0.00 0.00 33 1011.3
20260507200647 64 222 2.0 11.0 0.00 0.00 0.00 32 1011.4
20260507200147 64 243 3.0 11.0 0.00 0.00 0.00 33 1011.6
20260507195647 64 225 5.0 11.0 0.00 0.00 0.00 32 1011.4
20260507195147 64 221 3.0 11.0 0.00 0.00 0.00 34 1011.5
20260507194647 64 223 3.0 11.0 0.00 0.00 0.00 33 1011.6
20260507194147 64 227 4.0 11.0 0.00 0.00 0.00 33 1011.6
20260507193647 64 276 5.0 11.0 0.00 0.00 0.00 33 1011.7
20260507193146 64 264 3.0 11.0 0.00 0.00 0.00 33 1011.7
20260507192646 63 246 2.0 11.0 0.00 0.00 0.00 33 1011.9
20260507192145 63 280 3.0 11.0 0.00 0.00 0.00 33 1012.0
20260507191645 63 277 6.0 11.0 0.00 0.00 0.00 33 1012.0
20260507191145 63 246 5.0 11.0 0.00 0.00 0.00 34 1012.2
20260507190643 62 88 2.0 11.0 0.00 0.00 0.00 35 1012.1
20260507190142 62 151 1.0 12.0 0.00 0.00 0.00 35 1012.0
20260507185126 61 266 6.0 11.0 0.00 0.00 0.00 35 1012.4
20260507184626 61 281 3.0 14.0 0.00 0.00 0.00 37 1012.0
20260507184126 61 253 1.0 14.0 0.00 0.00 0.00 37 1012.2
20260507183627 61 300 5.0 14.0 0.00 0.00 0.00 37 1012.4
20260507183125 60 278 4.0 14.0 0.00 0.00 0.00 38 1012.3
20260507182625 60 311 5.0 14.0 0.00 0.00 0.00 35 1011.9
20260507182124 60 310 4.0 12.0 0.00 0.00 0.00 34 1012.1
20260507181624 60 318 6.0 12.0 0.00 0.00 0.00 36 1012.3
20260507181123 60 8 3.0 12.0 0.00 0.00 0.00 37 1012.3
20260507180108 60 293 6.0 12.0 0.00 0.00 0.00 36 1012.6
20260507175608 61 276 4.0 11.0 0.00 0.00 0.00 36 1012.7
20260507175108 60 288 4.0 11.0 0.00 0.00 0.00 38 1012.6
20260507174608 60 290 3.0 11.0 0.00 0.00 0.00 37 1012.5
20260507174109 60 353 4.0 11.0 0.00 0.00 0.00 37 1012.8
20260507173608 60 14 3.0 11.0 0.00 0.00 0.00 37 1012.5
20260507173108 60 332 6.0 12.0 0.00 0.00 0.00 37 1012.5
20260507172606 60 307 3.0 12.0 0.00 0.00 0.00 39 1013.0
20260507171551 59 334 5.0 14.0 0.00 0.00 0.00 38 1012.4
20260507171051 59 331 5.0 11.0 0.00 0.00 0.00 37 1013.1
20260507170551 59 289 4.0 12.0 0.00 0.00 0.00 38 1013.2
20260507170046 58 262 5.0 15.0 0.00 0.00 0.00 39 1013.2
20260507165545 59 322 5.0 15.0 0.00 0.00 0.00 38 1013.5
20260507165045 59 304 7.0 13.0 0.00 0.00 0.00 37 1013.4
20260507164546 59 257 3.0 11.0 0.00 0.00 0.00 39 1013.1
20260507164045 59 304 5.0 11.0 0.00 0.00 0.00 38 1013.3
20260507163544 59 319 3.0 13.0 0.00 0.00 0.00 38 1013.2
20260507163043 59 263 4.0 13.0 0.00 0.00 0.00 39 1013.5
20260507162543 58 285 4.0 14.0 0.00 0.00 0.00 40 1013.7
20260507162043 58 301 3.0 14.0 0.00 0.00 0.00 38 1013.5
20260507161544 58 286 5.0 11.0 0.00 0.00 0.00 40 1013.4
20260507161042 58 324 2.0 12.0 0.00 0.00 0.00 40 1013.6
20260507160542 58 269 4.0 12.0 0.00 0.00 0.00 40 1013.5
20260507160042 57 0 2.0 12.0 0.00 0.00 0.00 40 1013.6
20260507155543 57 329 4.0 12.0 0.00 0.00 0.00 40 1013.7
20260507155043 57 297 6.0 13.0 0.00 0.00 0.00 41 1013.7
20260507154542 57 283 5.0 13.0 0.00 0.00 0.00 40 1013.7
20260507154042 56 309 4.0 11.0 0.00 0.00 0.00 41 1013.6
20260507153542 56 29 4.0 11.0 0.00 0.00 0.00 41 1013.3
20260507153042 56 341 3.0 11.0 0.00 0.00 0.00 41 1013.6
20260507152541 56 306 3.0 11.0 0.00 0.00 0.00 42 1013.4
20260507152042 56 280 4.0 11.0 0.00 0.00 0.00 42 1013.8
20260507151026 55 314 2.0 11.0 0.00 0.00 0.00 45 1013.6
20260507150525 55 344 3.0 11.0 0.00 0.00 0.00 44 1013.3
20260507150025 54 13 4.0 12.0 0.00 0.00 0.00 45 1013.3
20260507145525 55 330 3.0 12.0 0.00 0.00 0.00 43 1013.8
20260507145025 55 263 4.0 11.0 0.00 0.00 0.00 44 1013.5
20260507144009 54 273 3.0 11.0 0.00 0.00 0.00 46 1013.6
20260507143509 54 249 4.0 11.0 0.00 0.00 0.00 45 1013.9
20260507143009 53 288 4.0 11.0 0.00 0.00 0.00 46 1013.5
20260507142508 53 293 4.0 11.0 0.00 0.00 0.00 46 1013.6
20260507142008 53 270 3.0 11.0 0.00 0.00 0.00 46 1014.0
20260507140953 53 294 6.0 12.0 0.00 0.00 0.00 48 1013.6
20260507135937 52 253 1.0 12.0 0.00 0.00 0.00 53 1013.7
20260507135438 51 315 5.0 12.0 0.00 0.00 0.00 51 1013.5
20260507134423 51 301 3.0 12.0 0.00 0.00 0.00 54 1013.4
20260507133922 51 296 2.0 12.0 0.00 0.00 0.00 53 1013.6
20260507133422 51 259 2.0 12.0 0.00 0.00 0.00 57 1013.6
20260507132921 50 246 2.0 12.0 0.00 0.00 0.00 59 1013.6
20260507132420 50 266 3.0 12.0 0.00 0.00 0.00 60 1013.7
20260507131920 50 323 3.0 12.0 0.00 0.00 0.00 59 1013.4
20260507131420 49 278 3.0 12.0 0.00 0.00 0.00 60 1013.6
20260507130920 49 265 2.0 12.0 0.00 0.00 0.00 60 1013.5
20260507125905 48 253 1.0 12.0 0.00 0.00 0.00 66 1013.4
20260507125405 47 251 2.0 12.0 0.00 0.00 0.00 68 1013.6
20260507124905 47 232 1.0 12.0 0.00 0.00 0.00 72 1013.6
20260507124405 46 232 1.0 12.0 0.00 0.00 0.00 73 1013.7
20260507123904 45 232 1.0 12.0 0.00 0.00 0.00 73 1013.5
20260507123404 45 232 1.0 12.0 0.00 0.00 0.00 73 1013.6
20260507122904 45 230 1.0 12.0 0.00 0.00 0.00 73 1013.4
20260507122404 45 230 0.0 12.0 0.00 0.00 0.00 73 1013.5
20260507121904 44 229 1.0 12.0 0.00 0.00 0.00 74 1013.5
20260507121404 44 4 0.0 12.0 0.00 0.00 0.00 77 1013.3
20260507120904 43 260 0.0 12.0 0.00 0.00 0.00 77 1013.2
20260507115848 42 244 0.0 12.0 0.00 0.00 0.00 81 1013.4
20260507115347 41 261 1.0 12.0 0.00 0.00 0.00 83 1013.4
20260507114847 41 254 0.0 12.0 0.00 0.00 0.00 84 1013.4
20260507114347 40 288 0.0 12.0 0.00 0.00 0.00 85 1013.4
20260507113846 39 292 0.0 12.0 0.00 0.00 0.00 86 1013.3
20260507113345 39 292 0.0 12.0 0.00 0.00 0.00 86 1013.3
20260507112845 39 292 0.0 12.0 0.00 0.00 0.00 85 1013.3
20260507112345 39 292 0.0 12.0 0.00 0.00 0.00 85 1013.3
20260507111845 39 292 0.0 12.0 0.00 0.00 0.00 85 1013.4
20260507110830 39 292 0.0 12.0 0.00 0.00 0.00 85 1013.5
20260507105815 39 292 0.0 12.0 0.00 0.00 0.00 85 1013.5
20260507105315 38 292 0.0 12.0 0.00 0.00 0.00 85 1013.3
20260507104814 38 292 0.0 12.0 0.00 0.00 0.00 85 1013.6
20260507103758 38 292 0.0 12.0 0.00 0.00 0.00 84 1013.6
20260507103258 38 292 0.0 12.0 0.00 0.00 0.00 84 1013.6
20260507102243 39 292 0.0 12.0 0.00 0.00 0.00 83 1013.7
20260507101742 39 292 0.0 12.0 0.00 0.00 0.00 83 1013.5
20260507101242 39 292 0.0 12.0 0.00 0.00 0.00 82 1013.7
20260507100226 39 292 0.0 12.0 0.00 0.00 0.00 81 1013.6
20260507095726 39 293 0.0 12.0 0.00 0.00 0.00 80 1013.5
20260507095226 40 293 0.0 12.0 0.00 0.00 0.00 80 1013.7
20260507094725 40 293 0.0 12.0 0.00 0.00 0.00 80 1013.4
20260507093710 40 293 0.0 12.0 0.00 0.00 0.00 79 1013.4
20260507093210 41 293 0.0 12.0 0.00 0.00 0.00 78 1013.3
20260507092710 41 293 0.0 12.0 0.00 0.00 0.00 77 1013.1
20260507092210 41 293 0.0 12.0 0.00 0.00 0.00 77 1013.3
20260507091710 41 293 0.0 12.0 0.00 0.00 0.00 76 1013.4
20260507091210 41 293 0.0 12.0 0.00 0.00 0.00 76 1013.2
20260507090155 42 293 0.0 12.0 0.00 0.00 0.00 76 1013.2
20260507084623 42 293 0.0 12.0 0.00 0.00 0.00 75 1013.3
20260507084122 42 293 0.0 12.0 0.00 0.00 0.00 74 1013.2
20260507083621 42 293 0.0 12.0 0.00 0.00 0.00 74 1013.2
20260507083121 42 293 0.0 12.0 0.00 0.00 0.00 74 1013.0
20260507082620 43 293 0.0 12.0 0.00 0.00 0.00 73 1013.1
20260507082120 43 293 0.0 12.0 0.00 0.00 0.00 73 1013.2
20260507081620 43 293 0.0 12.0 0.00 0.00 0.00 73 1013.1
20260507080604 43 293 0.0 12.0 0.00 0.00 0.00 72 1012.9
20260507075549 43 292 0.0 12.0 0.00 0.00 0.00 72 1013.1
20260507075049 44 292 0.0 12.0 0.00 0.00 0.00 72 1013.4
20260507074549 44 292 0.0 12.0 0.00 0.00 0.00 72 1013.3
20260507073534 44 289 1.0 12.0 0.00 0.00 0.00 72 1013.1
20260507073034 44 288 0.0 12.0 0.00 0.00 0.00 72 1013.0
20260507072533 44 287 0.0 12.0 0.00 0.00 0.00 72 1013.0
20260507071517 45 287 0.0 12.0 0.00 0.00 0.00 71 1013.2
20260507071017 45 288 0.0 12.0 0.00 0.00 0.00 71 1013.0
20260507070517 45 288 0.0 12.0 0.00 0.00 0.00 71 1013.0
20260507070017 45 288 0.0 12.0 0.00 0.00 0.00 70 1013.2
20260507065517 45 289 0.0 12.0 0.00 0.00 0.00 70 1013.1
20260507065016 46 288 1.0 12.0 0.00 0.00 0.00 69 1013.3
20260507064516 46 291 0.0 12.0 0.00 0.00 0.00 69 1013.4
20260507064016 46 294 1.0 12.0 0.00 0.00 0.00 69 1013.3
20260507063516 46 298 0.0 12.0 0.00 0.00 0.00 69 1013.5
20260507063016 46 298 0.0 12.0 0.00 0.00 0.00 69 1013.2
20260507062001 46 319 3.0 12.0 0.00 0.00 0.00 70 1013.4
20260507060946 46 294 1.0 12.0 0.00 0.00 0.00 71 1013.6
20260507060445 46 293 0.0 12.0 0.00 0.00 0.00 72 1013.6
20260507055944 46 295 2.0 12.0 0.00 0.00 0.00 72 1013.5
20260507055444 46 308 2.0 12.0 0.00 0.00 0.00 73 1013.6
20260507054944 46 305 2.0 12.0 0.00 0.00 0.00 74 1013.3
20260507054444 46 276 0.0 12.0 0.00 0.00 0.00 74 1013.2
20260507053944 46 275 0.0 12.0 0.00 0.00 0.00 74 1013.3
20260507053444 46 275 0.0 12.0 0.00 0.00 0.00 74 1013.5
20260507052944 46 275 0.0 12.0 0.00 0.00 0.00 73 1013.2
20260507052444 46 275 0.0 12.0 0.00 0.00 0.00 73 1013.1
20260507051943 46 275 0.0 12.0 0.00 0.00 0.00 73 1013.3
20260507051443 46 275 0.0 12.0 0.00 0.00 0.00 73 1013.0
20260507050428 47 276 0.0 12.0 0.00 0.00 0.00 72 1013.0
20260507045928 47 281 0.0 12.0 0.00 0.00 0.00 73 1013.4
20260507045428 47 290 0.0 12.0 0.00 0.00 0.00 72 1013.1
20260507044928 47 291 0.0 12.0 0.00 0.00 0.00 73 1013.2
20260507044427 47 291 0.0 12.0 0.00 0.00 0.00 73 1013.1
20260507043412 47 293 0.0 12.0 0.00 0.00 0.00 73 1013.0
20260507042357 47 293 0.0 12.0 0.00 0.00 0.00 72 1012.9
20260507041857 47 293 0.0 12.0 0.00 0.00 0.00 72 1012.9